Location: Risskov
(56.1972°N, 10.2480°E)
Time: 00:33:34
(UTC+00:00)

ATLAS CENTAUR R/B - Pass Details

Date: 05 July 2020
Orbit: 475 x 672 km, 64.7° (Epoch: 13 July)

Event Time Altitude Azimuth Distance (km) Brightness Sun altitude
Rises 21:50:25 0° 303° (WNW) 2,578 5.7 -8.7°
Reaches altitude 10° 21:53:12 10° 282° (WNW) 1,670 4.3 -8.8°
Maximum altitude 21:55:31 16° 243° (WSW) 1,324 3.2 -8.9°
Drops below altitude 10° 21:57:49 10° 203° (SSW) 1,645 3.3 -9.1°
Enters shadow 21:58:26 - 196° (SSW) 1,817 3.5 -9.1°
